Zurück zum Katalog

COSMOS 1275 DEB

AktivPO
NORAD 12665·DEBRIS·🇷🇺 Russia

Gestartet Jun 4, 1981 von Plesetsk Cosmodrome

Loading…

Nächste Überflüge (nächste 24 Stunden)

TLE

AktuellSource: Space-Track

Epoche: Sep 13, 2026, 14:54 UTC

1 12665U 81053V   26256.62123567  .00000249  00000-0  21087-3 0  9996
2 12665  82.9643 111.0841 0033624 254.5049 162.3186 13.83763872271552

Verfolge COSMOS 1275 DEB in Echtzeit mit AllMySat

Download on the App Store